Total_Precipitation_Accumulation
0.43 0.51 0.77 0.68 0.58 0.57 0.59 0.59 0.60 0.63 0.58 0.58 0.62 0.60 0.59 0.60 0.61 0.65 0.71 0.79 0.87 0.95 1.04 1.19 1.26 1.12 1.04 0.93 0.82 0.76 0.72 0.76 0.80 0.86 0.94 0.97 1.03 1.21 1.42 1.40 1.40 0.97 0.97
0.24 0.35 0.61 0.51 0.43 0.45 0.45 0.51 0.59 0.58 0.57 0.55 0.53 0.53 0.64 0.67 0.64 0.66 0.78 0.86 0.88 0.96 1.11 1.19 1.06 0.89 0.78 0.69 0.63 0.62 0.67 0.82 0.93 1.02 1.09 0.96 1.09 1.28 1.34 1.26 1.37 0.92 0.85
0.20 0.21 0.33 0.39 0.35 0.41 0.41 0.46 0.54 0.52 0.51 0.48 0.49 0.52 0.65 0.71 0.70 0.69 0.75 0.81 0.93 1.06 1.05 0.99 0.77 0.60 0.53 0.50 0.52 0.58 0.68 0.85 1.10 1.29 1.47 1.01 0.82 1.19 1.21 1.11 0.92 0.68 0.72
0.14 0.15 0.16 0.29 0.31 0.30 0.34 0.40 0.45 0.44 0.43 0.44 0.46 0.47 0.52 0.59 0.61 0.67 0.77 0.85 0.98 0.94 0.81 0.74 0.60 0.46 0.40 0.40 0.45 0.55 0.65 0.81 1.19 1.56 1.68 0.87 0.50 0.73 0.84 0.71 0.62 0.61 0.62
0.12 0.13 0.17 0.23 0.24 0.24 0.27 0.34 0.36 0.35 0.36 0.39 0.42 0.46 0.48 0.51 0.62 0.76 0.83 0.88 0.83 0.71 0.63 0.60 0.52 0.43 0.35 0.35 0.42 0.55 0.63 0.81 1.13 1.36 1.15 0.92 0.82 0.69 0.61 0.56 0.60 0.61 0.60
0.13 0.13 0.17 0.22 0.20 0.21 0.23 0.27 0.31 0.33 0.35 0.36 0.37 0.44 0.50 0.62 0.71 0.75 0.75 0.72 0.67 0.59 0.52 0.45 0.40 0.38 0.34 0.35 0.44 0.54 0.69 0.90 1.03 0.76 0.69 0.81 0.76 0.67 0.58 0.64 0.63 0.57 0.53
0.14 0.16 0.18 0.22 0.20 0.20 0.22 0.25 0.29 0.31 0.35 0.37 0.37 0.42 0.53 0.67 0.70 0.65 0.57 0.55 0.52 0.43 0.41 0.42 0.41 0.34 0.36 0.39 0.48 0.58 0.76 0.97 0.92 0.63 0.68 0.92 0.75 0.54 0.58 0.69 0.79 0.69 0.51
0.20 0.23 0.26 0.28 0.26 0.24 0.24 0.25 0.27 0.29 0.32 0.36 0.38 0.40 0.46 0.53 0.55 0.51 0.47 0.48 0.45 0.40 0.38 0.40 0.40 0.37 0.39 0.44 0.53 0.61 0.68 0.71 0.65 0.62 0.65 0.78 0.56 0.46 0.52 0.67 0.84 0.83 0.75
0.42 0.52 0.46 0.36 0.31 0.32 0.33 0.33 0.32 0.35 0.38 0.39 0.40 0.39 0.44 0.47 0.48 0.47 0.47 0.46 0.45 0.43 0.42 0.38 0.36 0.38 0.42 0.47 0.52 0.58 0.61 0.68 0.73 0.80 0.67 0.72 0.49 0.49 0.58 0.64 0.76 0.85 0.86
0.64 0.66 0.62 0.50 0.45 0.36 0.32 0.35 0.39 0.43 0.46 0.44 0.41 0.43 0.45 0.44 0.46 0.49 0.49 0.56 0.56 0.58 0.61 0.57 0.49 0.45 0.50 0.57 0.58 0.64 0.69 0.68 0.71 0.75 0.91 0.74 0.56 0.64 0.72 0.73 0.78 0.87 0.94
1.07 0.98 0.84 0.56 0.48 0.46 0.40 0.39 0.50 0.52 0.54 0.59 0.58 0.55 0.68 0.84 0.83 0.93 0.78 0.89 0.87 0.90 0.90 0.90 0.84 0.81 0.81 0.71 0.78 0.91 0.85 0.74 0.93 1.02 0.94 0.67 0.71 0.93 1.06 0.90 0.87 0.88 0.94
1.60 1.40 1.16 0.85 0.68 0.62 0.55 0.63 0.72 0.73 0.85 0.91 1.08 1.10 1.35 1.59 1.52 1.12 1.18 1.43 1.48 1.47 1.40 1.44 1.57 1.40 1.22 1.05 1.36 1.61 1.04 0.90 1.04 1.01 0.95 1.01 1.19 1.47 1.61 1.33 1.11 0.98 0.96
1.75 1.58 1.47 1.25 1.02 0.83 0.89 0.92 1.01 1.16 1.46 1.34 1.27 1.41 1.78 1.63 1.36 1.25 1.40 1.70 1.99 1.94 1.89 1.97 2.12 1.77 1.84 2.03 2.15 2.16 1.55 1.29 1.38 1.31 1.12 1.30 1.58 1.93 2.15 1.92 1.56 1.31 1.16
2.31 2.07 1.86 1.71 1.50 1.43 1.35 1.27 1.21 1.27 1.42 1.43 1.60 1.48 1.79 1.92 1.79 1.76 1.98 2.04 2.24 2.43 2.81 2.64 2.76 2.62 2.50 2.32 2.36 2.37 2.11 2.00 1.87 1.98 1.95 1.84 1.94 2.18 2.49 2.47 2.15 1.81 1.55
2.75 2.55 2.40 2.26 2.17 2.15 2.01 1.83 1.46 1.53 1.53 1.58 1.83 1.85 1.94 2.19 2.28 2.37 2.36 2.29 2.13 2.46 2.89 3.13 2.83 3.11 3.10 2.67 2.31 2.18 2.18 2.15 2.35 2.58 2.42 2.56 2.50 2.46 2.71 2.78 2.60 2.35 2.18
2.92 3.05 3.14 3.01 2.90 2.89 2.70 2.50 2.22 2.01 2.13 2.06 2.11 2.26 2.43 2.66 2.84 2.90 2.72 2.62 2.37 2.38 2.67 2.88 2.86 3.11 2.98 2.82 2.19 2.07 2.05 2.20 2.38 2.45 2.45 2.89 2.85 2.61 2.63 2.83 2.91 2.74 2.55
3.09 3.54 3.81 3.85 3.76 3.73 3.61 3.27 2.89 2.71 2.73 2.89 3.00 3.02 2.96 3.08 3.34 3.23 3.01 2.66 2.50 2.55 2.71 2.66 2.67 2.74 2.59 2.52 2.27 2.32 2.27 2.18 2.11 2.17 2.31 2.53 2.45 2.29 2.32 2.47 2.78 2.99 3.15
3.40 3.96 4.26 4.41 4.64 4.52 4.47 4.15 3.64 3.40 3.29 3.27 3.36 3.38 3.29 3.34 3.22 3.19 2.89 2.50 2.56 2.62 2.62 2.66 2.51 2.57 2.59 2.61 2.59 2.40 2.45 2.35 1.91 1.93 2.02 1.97 2.07 1.90 2.08 2.25 2.44 2.70 3.25
3.72 4.38 4.78 5.28 5.57 5.45 5.17 4.69 4.20 4.06 3.86 3.67 3.65 3.58 3.45 3.23 3.06 3.17 2.87 2.74 2.67 2.65 2.49 2.26 2.59 2.75 2.77 2.77 2.50 2.37 2.16 1.96 1.72 1.56 1.53 1.40 1.58 1.76 1.98 2.04 2.22 2.36 2.91
3.78 4.53 5.17 5.74 5.95 5.71 5.17 4.74 4.56 4.36 4.04 3.80 3.52 3.30 3.07 2.94 2.73 2.91 2.66 2.62 2.74 2.78 2.56 2.55 2.80 2.82 2.54 2.61 2.31 2.16 1.97 1.63 1.51 1.41 1.25 1.20 1.19 1.17 1.49 1.93 2.34 2.09 2.46
4.01 4.75 5.37 5.79 5.77 5.57 5.19 4.80 4.52 4.04 3.73 3.47 3.18 2.95 2.73 2.48 2.38 2.70 2.47 2.73 2.62 2.49 2.33 2.30 2.39 2.41 2.16 2.40 2.61 2.13 1.63 1.38 1.29 1.16 1.15 1.23 1.17 1.26 1.56 1.99 2.27 2.39 2.23
3.84 4.40 4.81 4.80 4.47 4.34 4.32 4.21 3.95 3.96 3.81 3.67 3.41 3.18 2.79 2.61 2.47 2.33 2.50 2.33 2.27 2.33 2.16 2.05 2.24 2.23 1.99 2.34 2.44 2.38 1.82 1.58 1.33 0.95 1.07 1.18 1.27 1.51 1.60 1.72 2.07 2.35 2.25
3.31 3.66 3.68 3.56 3.39 3.43 3.48 3.44 3.52 3.73 3.73 3.68 3.52 3.24 2.95 2.80 2.68 2.54 2.44 2.24 2.16 1.99 2.04 2.08 2.15 2.18 2.09 2.10 2.15 2.33 1.93 1.57 1.34 1.02 1.02 1.20 1.48 1.72 1.70 1.77 1.78 1.96 2.03
2.55 2.69 2.68 2.77 2.78 2.80 2.83 2.82 2.74 2.76 2.94 3.15 3.36 3.40 3.34 3.11 2.86 2.59 2.42 2.19 2.00 1.86 2.02 1.75 1.85 2.14 2.21 1.95 1.95 1.90 1.81 1.89 1.84 1.48 1.13 1.05 1.31 1.50 1.58 1.50 1.58 1.75 1.94
1.82 1.94 2.01 2.30 2.61 2.71 2.76 2.85 2.75 2.47 2.45 2.50 2.64 2.78 2.79 2.78 2.62 2.34 2.22 2.14 1.98 1.83 1.81 1.78 2.02 2.04 2.00 1.93 1.96 1.92 2.01 2.13 1.97 1.85 1.53 1.42 1.50 1.45 1.44 1.43 1.50 1.62 1.86
1.43 1.59 1.81 2.11 2.48 2.69 2.74 2.70 2.66 2.56 2.51 2.43 2.44 2.48 2.36 2.34 2.28 2.13 2.04 2.07 1.93 1.80 1.78 1.78 1.91 1.98 2.05 2.12 2.10 2.04 2.09 2.06 2.07 2.26 1.99 1.81 1.77 1.54 1.51 1.53 1.60 1.73 1.89